EW3670 Weather Reports


Display with metric or nautical units.
time (UTC)temp
F
wind
direction
speed
MPH
gust
MPH
rain 1hr
in
rain 24hr
in
rain mn
in
humidity
%
barometer
mb
20260905073129 62 333 2.0 8.0 0.00 0.00 0.00 84 1011.5
20260905071602 62 269 0.0 2.0 0.00 0.00 0.00 85 1011.5
20260905070104 62 0 1.0 4.0 0.00 0.00 0.00 84 1011.6
20260905064615 62 0 0.0 3.0 0.00 0.00 0.00 83 1011.5
20260905063119 63 327 1.0 6.0 0.00 0.00 0.00 83 1011.4
20260905061619 63 272 0.0 4.0 0.00 0.00 0.00 83 1011.6
20260905060104 63 265 1.0 4.0 0.00 0.00 0.00 82 1011.5
20260905054604 63 324 1.0 5.0 0.00 0.00 0.00 82 1011.5
20260905053105 63 259 1.0 4.0 0.00 0.00 0.00 82 1011.5
20260905051611 64 290 2.0 5.0 0.00 0.00 0.00 82 1011.6
20260905050107 64 314 1.0 5.0 0.00 0.00 0.00 81 1011.7
20260905044603 64 300 0.0 5.0 0.00 0.00 0.00 81 1011.7
20260905043105 65 254 2.0 8.0 0.00 0.00 0.00 80 1011.7
20260905041604 65 0 1.0 6.0 0.00 0.00 0.00 79 1011.8
20260905040103 65 273 1.0 7.0 0.00 0.00 0.00 79 1011.7
20260905034613 66 250 1.0 9.0 0.00 0.00 0.00 79 1011.6
20260905033111 66 244 1.0 4.0 0.00 0.00 0.00 79 1011.7
20260905031626 66 271 0.0 8.0 0.00 0.00 0.00 79 1011.8
20260905030120 66 278 0.0 3.0 0.00 0.00 0.00 79 1011.8
20260905024611 66 293 1.0 3.0 0.00 0.00 0.00 79 1012.0
20260905023137 66 296 0.0 3.0 0.00 0.00 0.00 79 1012.0
20260905021608 67 292 1.0 6.0 0.00 0.00 0.00 78 1012.2
20260905020108 67 308 1.0 5.0 0.00 0.00 0.00 77 1012.3
20260905014616 67 299 1.0 6.0 0.00 0.00 0.00 77 1012.4
20260905013057 67 334 2.0 5.0 0.00 0.00 0.00 75 1012.4
20260905011607 68 305 2.0 4.0 0.00 0.00 0.00 74 1012.3
20260905010107 67 304 1.0 3.0 0.00 0.00 0.00 74 1012.2
20260905004601 68 296 2.0 5.0 0.00 0.00 0.00 73 1012.0
20260905003058 68 292 1.0 4.0 0.00 0.00 0.00 72 1011.8
20260905001558 68 252 1.0 5.0 0.00 0.00 0.00 71 1011.7
20260905000119 68 298 1.0 8.0 0.00 0.00 0.00 70 1011.6
20260904234601 69 268 2.0 8.0 0.00 0.00 0.00 68 1011.4
20260904233100 69 286 1.0 7.0 0.00 0.00 0.00 67 1011.4
20260904231602 69 323 1.0 5.0 0.00 0.00 0.00 68 1011.5
20260904230105 70 293 3.0 9.0 0.00 0.00 0.00 67 1011.6
20260904224606 70 267 3.0 8.0 0.00 0.00 0.00 68 1011.6
20260904223058 70 301 2.0 11.0 0.00 0.00 0.00 69 1011.8
20260904221605 71 17 2.0 10.0 0.00 0.00 0.00 67 1012.0
20260904220119 71 24 4.0 11.0 0.00 0.00 0.00 67 1011.7
20260904214601 72 279 2.0 9.0 0.00 0.00 0.00 66 1011.6
20260904213107 72 296 2.0 9.0 0.00 0.00 0.00 65 1011.4
20260904211606 73 311 2.0 9.0 0.00 0.00 0.00 65 1011.6
20260904210119 73 287 2.0 10.0 0.00 0.00 0.00 65 1011.6
20260904204604 73 323 2.0 10.0 0.00 0.00 0.00 63 1011.6
20260904203102 74 305 2.0 9.0 0.00 0.00 0.00 64 1011.6
20260904201559 73 258 3.0 10.0 0.00 0.00 0.00 62 1011.7
20260904194610 74 268 0.0 9.0 0.00 0.00 0.00 63 1011.8
20260904193116 73 312 5.0 12.0 0.00 0.00 0.00 62 1011.8
20260904191604 74 295 3.0 10.0 0.00 0.00 0.00 64 1011.8
20260904190106 74 296 3.0 8.0 0.00 0.00 0.00 61 1011.9
20260904184621 73 254 3.0 12.0 0.00 0.00 0.00 64 1012.1
20260904183102 73 319 4.0 9.0 0.00 0.00 0.00 64 1012.1
20260904181610 73 240 4.0 12.0 0.00 0.00 0.00 64 1012.0
20260904180119 74 320 3.0 10.0 0.00 0.00 0.00 59 1011.9
20260904174613 74 290 1.0 4.0 0.00 0.00 0.00 63 1011.9
20260904173112 73 275 3.0 7.0 0.00 0.00 0.00 62 1012.3
20260904171606 73 275 1.0 5.0 0.00 0.00 0.00 66 1012.1
20260904170105 73 305 2.0 13.0 0.00 0.00 0.00 66 1012.1
20260904164602 72 350 2.0 8.0 0.00 0.00 0.00 66 1012.0
20260904163110 72 292 3.0 6.0 0.00 0.00 0.00 68 1012.1
20260904161606 73 325 2.0 4.0 0.00 0.00 0.00 66 1012.0
20260904160106 72 248 1.0 7.0 0.00 0.00 0.00 70 1012.0
20260904154600 71 294 2.0 7.0 0.00 0.00 0.00 72 1012.1
20260904153127 71 296 2.0 7.0 0.00 0.00 0.00 71 1012.2
20260904151602 70 300 3.0 11.0 0.00 0.00 0.00 71 1012.1
20260904144608 70 257 3.0 8.0 0.00 0.00 0.00 73 1012.6
20260904143109 71 227 1.0 10.0 0.00 0.00 0.00 72 1012.8
20260904141602 70 309 3.0 11.0 0.00 0.00 0.00 73 1012.8
20260904140104 70 319 1.0 8.0 0.00 0.00 0.00 75 1012.7
20260904134604 69 321 2.0 8.0 0.00 0.00 0.00 77 1012.6
20260904133114 68 321 2.0 7.0 0.00 0.00 0.00 77 1012.4
20260904131604 67 273 1.0 5.0 0.00 0.00 0.00 81 1012.3
20260904124608 64 9 2.0 8.0 0.00 0.00 0.00 84 1012.2
20260904123116 64 297 2.0 6.0 0.00 0.00 0.00 85 1012.3
20260904121603 63 279 2.0 5.0 0.00 0.00 0.00 86 1012.4
20260904120104 63 271 1.0 7.0 0.00 0.00 0.00 87 1012.3
20260904114605 63 256 4.0 8.0 0.00 0.00 0.00 87 1012.3
20260904113103 62 290 2.0 9.0 0.00 0.00 0.00 89 1011.9
20260904111615 62 301 2.0 7.0 0.00 0.00 0.00 90 1011.6
20260904110110 61 326 2.0 7.0 0.00 0.00 0.00 91 1011.7
20260904104605 61 297 2.0 6.0 0.00 0.00 0.00 91 1011.7
20260904103105 62 277 1.0 5.0 0.00 0.00 0.00 90 1011.6
20260904101615 62 266 2.0 4.0 0.00 0.00 0.00 90 1011.5
20260904100104 62 295 1.0 5.0 0.00 0.00 0.00 90 1011.3
20260904094604 62 285 1.0 3.0 0.00 0.00 0.00 90 1011.3
20260904093118 62 286 1.0 5.0 0.00 0.00 0.00 89 1011.2
20260904091601 62 283 1.0 6.0 0.00 0.00 0.00 89 1011.1
20260904090059 63 308 1.0 6.0 0.00 0.00 0.00 89 1011.1
20260904084603 63 265 2.0 5.0 0.00 0.00 0.00 89 1011.1
20260904083105 63 290 1.0 6.0 0.00 0.00 0.00 88 1010.9
20260904081600 63 277 1.0 6.0 0.00 0.00 0.00 88 1010.9
20260904074604 64 315 2.0 3.0 0.00 0.00 0.00 87 1010.8